Wind_Speed
10 12 12 14 15 19 23 27 27 25 23 25 27 23 17 20 23 30 33 37 36 34 35 36 38 38 39 38 38 38 36 34 32 31 31 30 30 30 31 31 31 32 32 31 32 33 32 32 33
14 16 17 18 21 27 28 23 26 24 28 27 25 21 18 17 22 26 29 29 28 30 32 35 37 39 39 40 41 41 39 34 31 30 29 30 30 32 32 32 33 33 33 33 34 35 35 35 35
18 20 20 18 29 27 24 20 24 26 26 28 31 25 17 20 22 24 24 24 26 27 30 32 35 36 38 40 38 37 36 34 32 29 28 30 33 35 36 36 35 35 35 34 34 37 37 37 37
23 24 23 21 26 27 19 23 25 24 30 32 29 31 20 20 26 24 21 25 26 28 31 32 32 33 34 32 33 31 31 33 32 30 30 33 36 37 36 36 38 39 39 36 34 34 36 36 34
23 26 27 29 28 25 23 28 29 29 29 33 35 29 26 26 30 27 26 26 27 28 30 28 29 29 30 29 28 30 30 31 31 31 34 36 37 38 38 39 39 39 39 37 36 35 35 37 38
30 32 35 32 27 21 22 31 32 31 28 31 34 34 29 28 33 27 27 25 30 29 27 27 29 30 32 32 30 30 31 30 31 34 36 37 38 39 39 40 40 39 37 39 41 40 41 41 42
38 39 35 37 28 24 21 31 30 31 33 33 35 35 31 33 29 26 29 30 30 26 25 28 31 33 32 32 34 40 40 40 39 39 39 42 41 40 41 41 40 38 36 38 40 42 42 44 44
36 42 40 36 34 29 22 31 35 36 38 39 40 36 31 33 28 26 27 32 28 25 22 27 31 34 35 38 37 38 39 42 44 44 43 42 40 40 40 39 35 36 38 40 39 40 42 42 43
41 46 39 35 37 28 29 30 33 38 41 39 46 39 33 38 31 30 29 29 26 21 24 29 33 36 38 40 38 37 36 39 40 42 42 41 39 38 35 32 32 35 39 41 42 43 43 44 45
47 42 36 40 37 37 36 39 36 41 44 48 40 34 35 40 33 32 27 24 22 24 27 29 34 37 40 41 40 41 38 37 37 37 38 38 38 36 33 31 33 37 38 40 42 45 44 43 42
49 46 41 44 41 44 43 41 38 45 37 31 31 35 38 32 28 26 27 23 22 27 33 36 37 40 41 41 42 41 37 34 34 35 35 35 35 34 33 34 38 41 37 37 36 37 38 42 42
53 47 46 44 42 45 47 51 45 38 32 26 33 37 30 25 26 26 25 23 24 29 35 39 40 38 39 40 39 36 32 31 33 32 34 32 30 29 32 34 37 37 37 34 34 35 37 38 37
54 48 49 47 45 44 50 51 42 30 25 29 34 31 20 25 31 26 22 21 23 31 33 35 36 36 39 39 36 32 29 32 31 33 29 31 31 30 31 30 31 34 32 29 28 30 31 32 30
51 51 50 49 41 45 45 34 30 12 22 30 31 22 18 27 22 20 21 23 25 29 31 35 37 33 36 37 34 30 31 32 33 31 31 30 29 28 28 30 31 31 28 26 25 26 28 33 31
55 56 52 41 36 29 33 30 23 14 26 25 24 19 21 19 20 25 23 21 19 25 31 33 31 33 36 36 32 30 32 33 32 31 29 25 23 25 27 29 31 27 26 26 26 28 30 32 32
59 56 45 31 36 20 34 20 13 24 26 19 16 18 13 15 21 22 19 17 19 26 32 34 30 31 33 31 30 30 31 33 31 32 30 28 26 24 28 27 29 24 24 25 24 25 29 30 29
60 46 39 33 26 25 36 28 23 24 24 19 14 13 13 17 17 22 16 20 23 26 30 34 30 30 30 31 31 30 31 33 32 31 26 25 27 26 29 27 25 22 22 20 19 21 22 25 27
51 47 43 30 14 27 34 35 24 23 26 23 16 12 13 17 12 16 20 24 27 30 29 31 28 29 31 33 31 30 31 33 30 29 28 29 26 23 23 25 22 19 20 16 15 14 16 21 23
55 49 41 24 17 31 33 32 18 27 29 23 14 12 10 17 13 19 21 24 30 35 33 29 27 30 31 31 31 29 30 30 30 31 27 23 20 21 25 27 20 17 15 13 11 13 15 18 21
52 49 37 24 14 34 31 31 23 27 27 19 12 9 11 15 12 16 23 30 34 38 34 26 26 27 28 29 28 28 30 28 32 27 20 20 21 24 27 23 13 12 10 10 12 13 14 18 20
47 43 29 22 18 35 36 32 26 26 21 13 9 10 11 12 15 18 27 34 38 40 28 24 25 25 27 27 26 28 26 25 24 23 23 25 29 27 24 15 10 9 4 4 15 15 19 21 21
39 24 24 26 27 33 38 40 27 26 13 15 12 10 7 11 14 18 24 29 33 29 22 21 22 26 25 25 25 26 24 24 23 25 25 26 23 17 15 9 6 2 3 9 14 21 21 20 23
24 27 29 28 31 35 35 40 15 21 14 14 12 3 4 7 15 18 22 22 20 20 21 21 23 24 24 24 24 24 22 22 21 24 24 20 19 16 10 5 2 4 9 14 16 19 20 21 24
34 32 31 32 37 47 30 39 11 17 18 11 4 3 9 9 16 25 18 19 21 19 19 19 21 22 23 23 23 19 19 21 23 23 21 17 15 11 5 2 4 8 14 15 16 17 19 25 30
41 39 38 41 47 49 27 34 15 18 14 10 5 4 10 12 20 20 16 18 17 17 15 18 19 20 19 21 16 16 19 20 21 19 17 15 12 8 2 5 7 10 16 16 18 19 23 24 26
39 41 45 48 50 39 29 28 15 19 11 9 5 5 8 13 19 17 15 14 14 11 15 16 18 16 18 18 15 17 18 16 19 14 16 14 10 4 5 8 13 14 17 19 23 22 22 22 22
38 47 41 43 39 39 38 23 27 14 5 3 3 3 9 16 23 18 14 14 12 12 14 15 15 15 18 16 13 15 13 16 16 13 15 8 9 7 9 13 14 17 18 20 27 21 23 19 21
41 46 43 45 44 42 30 27 20 12 8 5 4 4 10 19 23 12 13 13 8 12 11 14 13 12 15 12 10 10 10 17 13 12 8 11 9 11 13 13 12 15 19 23 20 17 24 21 22
43 47 44 42 39 35 26 22 18 14 13 8 5 4 10 18 15 10 12 10 11 8 9 12 9 10 11 11 7 9 9 15 13 13 13 12 11 13 14 15 14 17 20 20 18 21 20 20 19
42 39 36 37 31 30 27 20 22 17 11 7 6 1 15 14 15 10 11 10 11 6 8 9 7 6 9 8 7 9 9 12 10 16 13 11 12 13 14 15 15 17 18 19 22 18 20 20 22
Wind_Direction
270 278 283 289 308 316 317 311 304 292 279 285 279 286 292 292 292 297 292 291 295 295 295 295 296 298 297 296 293 292 290 287 284 280 274 272 272 271 269 267 268 271 274 275 274 273 269 263 258
265 271 279 286 308 314 313 303 283 280 272 280 284 274 291 289 292 288 284 294 299 297 294 293 293 292 292 292 290 288 284 284 283 279 279 281 279 276 272 268 268 273 274 274 275 275 274 268 262
262 268 274 286 310 318 310 291 291 288 281 272 279 287 287 297 289 293 309 310 306 303 297 294 290 289 289 290 292 292 285 280 277 277 281 279 278 277 274 272 272 273 273 272 271 272 272 268 260
259 265 272 292 303 314 296 288 288 281 281 292 294 292 285 300 297 311 312 307 309 304 300 299 301 301 297 294 289 288 285 279 280 278 277 277 279 277 275 276 279 279 276 272 265 266 267 259 252
261 263 269 289 299 307 299 294 301 289 290 291 288 299 299 296 301 312 314 311 316 309 307 308 306 301 303 298 296 293 286 280 279 280 281 283 282 278 276 276 276 278 280 277 273 268 262 256 254
264 263 271 281 290 294 291 290 291 290 295 306 296 293 296 293 298 309 313 311 312 306 309 303 299 299 297 295 298 297 294 284 280 280 281 284 282 278 280 280 280 278 275 274 272 269 266 263 260
262 263 268 280 288 285 289 287 286 286 288 294 298 289 290 287 291 309 316 308 309 303 309 302 299 300 303 310 309 308 305 297 293 289 287 285 283 281 281 281 279 275 271 270 269 269 269 265 261
259 267 271 282 287 280 271 270 279 281 285 295 301 290 294 294 293 310 314 304 298 300 309 305 305 307 307 310 307 303 298 293 290 289 287 285 282 281 281 281 280 277 274 275 272 266 270 264 259
268 270 278 282 285 273 284 282 277 278 285 293 299 289 292 292 298 310 306 295 298 303 307 303 305 309 308 306 306 307 296 285 285 286 286 284 283 281 280 279 283 287 281 276 274 270 267 262 258
274 279 286 288 281 278 282 288 289 276 271 280 283 279 280 280 294 306 289 295 290 299 296 301 304 307 304 299 301 303 301 295 292 290 289 287 285 282 277 278 282 290 282 276 271 269 269 262 255
275 278 280 278 284 279 284 287 287 289 277 281 263 267 269 282 296 289 282 294 297 306 304 301 299 300 301 299 299 299 299 295 293 293 289 284 279 274 272 277 285 288 284 282 275 268 263 257 251
266 269 275 279 278 276 285 290 287 281 270 269 261 265 274 292 291 283 277 287 300 300 303 301 296 297 302 303 300 303 300 301 304 299 298 296 288 279 276 285 286 285 289 284 278 269 263 257 253
265 268 271 273 280 286 287 293 287 259 270 262 259 262 288 294 290 273 286 292 298 302 300 304 301 306 305 304 309 307 308 311 306 307 303 296 291 287 285 287 287 288 285 281 272 265 255 247 244
262 265 266 271 284 291 293 284 267 262 252 250 255 273 279 284 278 297 298 294 294 305 308 306 305 305 306 314 313 308 316 312 310 310 309 300 291 290 288 293 296 292 284 281 272 263 253 245 241
258 261 263 273 287 294 289 268 261 249 243 252 269 270 266 274 311 314 312 292 296 308 316 310 309 309 312 315 312 313 316 314 314 314 310 313 300 294 296 297 297 293 285 280 274 263 252 246 237
256 260 267 275 281 280 270 262 250 234 244 271 257 250 276 315 321 319 322 306 301 307 313 310 310 307 314 314 310 314 316 315 314 310 304 303 300 300 308 299 301 289 286 286 279 264 250 237 228
254 260 267 281 270 272 261 255 231 237 253 253 255 283 294 303 318 333 340 331 314 305 306 308 306 304 313 312 312 317 312 313 312 311 309 298 300 298 305 301 299 288 289 286 273 256 240 226 212
258 263 269 265 244 268 246 254 243 255 258 264 266 270 276 298 323 318 322 323 323 320 311 308 301 304 310 311 313 313 309 312 312 314 308 305 301 299 305 310 304 292 293 282 267 244 211 206 207
257 263 265 230 252 259 253 259 253 255 270 263 254 258 293 316 327 311 308 316 311 320 316 304 301 310 310 309 311 311 312 313 311 313 316 308 301 304 310 308 299 295 291 273 245 210 220 207 199
252 254 250 224 240 254 248 252 255 270 272 271 266 292 310 317 311 299 305 305 301 315 310 297 310 313 311 309 311 312 314 316 319 322 323 322 311 310 310 309 295 291 291 262 220 195 184 171 170
246 248 224 234 234 245 255 257 264 270 265 264 260 299 310 315 313 304 289 290 297 307 299 304 311 311 308 312 311 314 316 316 317 327 326 321 312 303 309 304 295 295 291 191 171 173 166 167 163
241 214 251 244 237 240 255 262 256 260 255 263 278 294 326 315 301 295 288 290 298 297 302 313 311 310 312 307 309 316 312 318 321 331 330 321 326 317 314 297 284 295 142 139 159 158 159 158 162
199 240 245 237 232 238 234 259 252 245 246 267 269 254 270 343 335 314 296 296 291 293 308 310 313 314 308 303 310 310 315 320 327 332 329 319 324 326 324 284 219 151 143 130 144 152 159 158 159
226 237 238 235 232 239 229 252 221 227 239 236 173 245 267 331 325 322 299 293 292 299 305 310 315 313 306 311 310 310 317 322 330 330 327 318 331 338 319 182 172 150 148 135 144 152 160 159 153
228 232 233 236 237 244 241 245 201 222 209 184 196 273 291 349 335 327 307 293 297 305 309 315 315 311 310 316 311 320 320 328 334 333 327 335 340 348 114 141 149 146 145 138 141 146 154 159 171
231 239 239 237 235 245 233 234 208 209 191 184 211 259 323 349 330 316 316 310 313 315 321 316 314 310 311 314 306 318 322 340 347 338 338 344 2 29 101 117 123 140 141 142 138 141 154 159 163
236 236 238 240 240 245 242 216 210 212 209 187 206 291 337 338 318 299 308 315 310 324 317 312 314 303 311 322 308 315 332 342 353 342 346 13 36 100 115 114 127 137 142 142 140 137 155 153 157
220 236 222 224 225 232 231 216 202 206 207 188 196 345 352 317 315 311 325 320 324 318 308 316 315 309 321 333 329 324 342 356 0 8 29 46 62 119 118 111 124 133 142 145 136 151 154 152 154
217 220 213 224 228 228 221 221 200 206 221 183 152 322 320 308 336 329 327 316 328 310 313 320 315 315 347 352 347 346 5 15 27 42 43 52 88 115 122 117 121 132 138 146 142 147 156 151 151
213 222 221 229 222 219 218 196 204 208 198 192 141 297 306 324 347 318 322 309 324 303 317 321 317 318 8 359 9 19 23 27 37 50 37 75 103 120 123 125 132 136 135 139 156 150 151 166 160
Height
5892 5891 5891 5890 5892 5889 5887 5883 5882 5881 5881 5879 5877 5878 5880 5879 5877 5874 5870 5865 5861 5858 5855 5851 5847 5845 5843 5841 5840 5838 5836 5833 5831 5830 5829 5828 5828 5827 5827 5827 5827 5827 5826 5826 5826 5828 5829 5830 5831
5889 5889 5889 5888 5887 5886 5885 5881 5877 5879 5877 5873 5872 5874 5876 5875 5872 5869 5865 5861 5857 5854 5850 5846 5842 5839 5835 5833 5830 5828 5827 5825 5823 5822 5820 5819 5819 5818 5818 5819 5819 5819 5819 5818 5818 5819 5820 5822 5823
5884 5885 5887 5886 5882 5883 5879 5878 5876 5873 5871 5871 5867 5867 5871 5869 5867 5863 5859 5855 5851 5848 5844 5839 5836 5832 5829 5826 5822 5819 5817 5816 5814 5813 5811 5812 5811 5811 5809 5809 5809 5810 5810 5809 5809 5810 5810 5811 5814
5881 5881 5882 5883 5880 5878 5876 5873 5872 5873 5869 5866 5863 5861 5865 5864 5860 5857 5854 5849 5846 5842 5836 5832 5828 5825 5822 5819 5816 5813 5811 5809 5807 5805 5803 5803 5803 5802 5801 5800 5798 5798 5799 5799 5799 5800 5801 5803 5805
5877 5877 5876 5878 5878 5875 5871 5868 5868 5866 5866 5864 5860 5856 5857 5856 5853 5851 5848 5844 5840 5836 5831 5826 5822 5818 5816 5813 5809 5806 5804 5801 5800 5798 5798 5797 5795 5794 5793 5792 5792 5789 5787 5787 5789 5790 5791 5792 5795
5873 5871 5872 5872 5875 5871 5867 5863 5862 5861 5860 5858 5855 5852 5852 5850 5847 5846 5843 5839 5835 5832 5826 5822 5818 5814 5811 5808 5805 5801 5797 5795 5793 5793 5792 5789 5786 5786 5784 5783 5781 5780 5779 5778 5779 5780 5781 5782 5784
5865 5864 5867 5868 5870 5869 5866 5859 5859 5856 5854 5854 5850 5847 5848 5843 5841 5841 5837 5833 5830 5827 5821 5817 5812 5809 5805 5801 5798 5795 5791 5788 5787 5786 5785 5782 5779 5777 5776 5774 5772 5771 5769 5770 5770 5771 5771 5771 5773
5859 5856 5860 5863 5864 5863 5861 5858 5854 5852 5850 5847 5844 5842 5841 5837 5835 5835 5832 5830 5826 5821 5816 5812 5807 5803 5799 5795 5792 5788 5787 5784 5781 5778 5777 5774 5772 5769 5767 5765 5764 5762 5760 5760 5760 5761 5761 5761 5762
5852 5848 5854 5857 5856 5856 5856 5853 5854 5848 5844 5842 5838 5835 5834 5830 5830 5831 5828 5825 5820 5816 5812 5807 5802 5800 5796 5793 5789 5785 5782 5780 5776 5772 5769 5766 5763 5761 5759 5757 5755 5753 5751 5749 5749 5749 5750 5751 5752
5843 5840 5847 5852 5849 5847 5847 5845 5846 5842 5840 5839 5835 5832 5829 5826 5826 5827 5823 5820 5817 5813 5808 5803 5799 5795 5791 5787 5784 5780 5777 5773 5769 5765 5761 5757 5754 5752 5750 5749 5747 5744 5741 5739 5738 5738 5738 5738 5740
5835 5832 5843 5842 5843 5838 5838 5838 5838 5831 5832 5833 5829 5826 5823 5824 5824 5821 5817 5815 5812 5808 5803 5798 5794 5790 5786 5782 5778 5774 5770 5765 5762 5758 5754 5751 5748 5745 5743 5741 5738 5734 5732 5730 5728 5726 5726 5727 5728
5823 5828 5832 5834 5835 5830 5828 5826 5825 5825 5823 5825 5822 5819 5818 5819 5817 5814 5811 5810 5806 5802 5797 5793 5789 5785 5780 5777 5773 5767 5762 5758 5755 5751 5746 5742 5738 5736 5735 5733 5730 5725 5722 5719 5718 5716 5716 5717 5719
5815 5824 5823 5823 5824 5825 5820 5818 5814 5815 5819 5818 5815 5813 5812 5812 5810 5808 5806 5803 5799 5796 5791 5787 5783 5778 5774 5771 5764 5759 5755 5751 5748 5744 5739 5734 5731 5729 5727 5724 5721 5717 5714 5711 5709 5708 5708 5710 5713
5815 5811 5813 5815 5817 5816 5812 5808 5807 5814 5813 5811 5809 5807 5807 5808 5805 5801 5799 5797 5794 5791 5785 5781 5777 5773 5769 5762 5757 5753 5749 5746 5742 5738 5732 5728 5723 5720 5718 5715 5712 5708 5705 5703 5702 5702 5703 5704 5707
5803 5799 5803 5809 5811 5811 5806 5799 5806 5808 5805 5805 5803 5802 5802 5802 5797 5794 5794 5791 5788 5785 5781 5776 5773 5768 5763 5757 5752 5748 5745 5741 5736 5731 5726 5722 5718 5715 5711 5707 5703 5700 5697 5696 5695 5694 5695 5697 5700
5792 5791 5795 5806 5809 5809 5798 5796 5803 5799 5798 5800 5799 5797 5795 5793 5792 5790 5787 5785 5783 5780 5776 5772 5768 5764 5758 5753 5749 5745 5740 5735 5731 5727 5722 5717 5713 5709 5705 5700 5697 5694 5691 5688 5686 5685 5686 5688 5693
5780 5785 5790 5796 5801 5797 5791 5791 5795 5794 5793 5794 5792 5791 5789 5788 5786 5785 5783 5780 5778 5775 5771 5767 5764 5760 5755 5750 5745 5741 5736 5731 5727 5723 5717 5712 5708 5703 5699 5695 5691 5687 5684 5681 5679 5678 5679 5682 5687
5776 5781 5785 5788 5795 5787 5785 5784 5791 5789 5787 5787 5786 5785 5784 5782 5780 5781 5780 5777 5774 5770 5766 5763 5760 5756 5751 5745 5741 5737 5732 5727 5723 5718 5712 5706 5702 5697 5693 5689 5685 5681 5678 5676 5674 5674 5675 5679 5685
5771 5772 5777 5784 5786 5779 5781 5780 5788 5786 5784 5782 5782 5781 5778 5777 5776 5777 5775 5773 5770 5766 5762 5758 5755 5750 5745 5742 5738 5733 5728 5723 5718 5712 5706 5700 5696 5693 5689 5684 5680 5677 5674 5672 5671 5673 5675 5678 5684
5759 5763 5770 5776 5782 5772 5776 5775 5780 5780 5778 5778 5779 5776 5774 5773 5773 5772 5771 5768 5765 5761 5757 5753 5750 5745 5742 5738 5733 5729 5724 5719 5713 5706 5702 5697 5692 5689 5684 5679 5676 5673 5670 5669 5669 5672 5675 5679 5685
5747 5755 5767 5771 5773 5767 5768 5769 5774 5774 5773 5774 5773 5771 5770 5770 5768 5767 5765 5764 5760 5757 5753 5750 5745 5741 5738 5734 5730 5725 5721 5717 5711 5704 5699 5693 5688 5683 5679 5676 5674 5671 5668 5667 5668 5673 5677 5681 5688
5740 5754 5760 5763 5763 5764 5761 5757 5768 5768 5768 5768 5767 5767 5767 5766 5765 5763 5762 5758 5755 5753 5749 5745 5741 5738 5735 5731 5726 5722 5718 5713 5707 5701 5695 5689 5684 5679 5676 5673 5672 5671 5670 5669 5672 5675 5680 5685 5691
5741 5748 5752 5753 5753 5753 5757 5753 5762 5762 5763 5764 5763 5763 5764 5763 5761 5758 5755 5753 5751 5748 5745 5741 5738 5735 5731 5727 5723 5719 5715 5710 5704 5698 5692 5686 5681 5677 5674 5673 5672 5672 5673 5673 5677 5681 5685 5689 5694
5734 5738 5742 5742 5743 5738 5755 5750 5759 5759 5760 5762 5761 5762 5761 5759 5755 5754 5750 5749 5746 5744 5741 5738 5735 5732 5727 5723 5720 5716 5713 5707 5701 5695 5689 5684 5680 5677 5674 5673 5673 5674 5676 5678 5681 5685 5689 5693 5697
5724 5728 5731 5733 5732 5731 5750 5746 5755 5754 5756 5757 5757 5759 5756 5754 5752 5748 5747 5745 5743 5740 5737 5734 5732 5729 5725 5721 5718 5715 5710 5704 5698 5692 5686 5683 5679 5676 5675 5675 5675 5677 5679 5682 5685 5688 5693 5698 5702
5720 5723 5724 5723 5725 5737 5743 5741 5750 5749 5749 5751 5755 5755 5753 5750 5748 5746 5744 5741 5740 5737 5734 5731 5729 5726 5723 5720 5717 5713 5708 5703 5696 5690 5686 5682 5680 5678 5677 5678 5678 5680 5682 5685 5689 5693 5697 5702 5706
5714 5710 5722 5724 5730 5732 5732 5743 5742 5744 5746 5749 5752 5751 5750 5747 5745 5742 5741 5738 5737 5734 5732 5730 5727 5724 5722 5719 5714 5711 5707 5702 5696 5691 5687 5683 5681 5681 5681 5681 5682 5684 5686 5689 5693 5696 5701 5706 5709
5702 5702 5712 5712 5717 5720 5731 5736 5739 5741 5743 5746 5749 5748 5746 5745 5743 5739 5736 5736 5735 5732 5731 5728 5725 5723 5720 5717 5713 5710 5706 5701 5696 5692 5688 5685 5684 5685 5686 5686 5687 5688 5690 5694 5697 5700 5705 5709 5713
5690 5690 5702 5708 5712 5719 5728 5733 5736 5737 5741 5744 5744 5745 5744 5743 5739 5736 5735 5735 5734 5731 5730 5727 5724 5722 5720 5717 5713 5711 5707 5702 5698 5694 5690 5688 5687 5689 5690 5691 5692 5693 5694 5697 5699 5703 5708 5714 5717
5683 5692 5701 5704 5712 5717 5723 5730 5730 5733 5737 5740 5740 5741 5742 5740 5736 5735 5735 5734 5733 5731 5729 5727 5725 5722 5721 5718 5714 5712 5708 5704 5700 5697 5694 5692 5692 5693 5694 5695 5696 5698 5700 5701 5703 5706 5710 5714 5720